Theta_e
308 309 309 309 308 307 307 307 307 307 306 306 305 304 303 302 304 309 311 305 310 311 314 313 311 310 309 311 310 309 316 316 316 314 316 320 324 324 324 327 330 332 331 331 330
305 307 307 307 306 306 307 306 305 306 306 305 305 305 303 303 310 311 307 306 309 313 312 311 311 310 312 313 312 315 316 316 313 313 315 315 322 322 325 324 327 330 329 330 329
304 305 306 306 306 304 303 303 304 304 305 305 304 304 304 304 311 307 315 316 311 313 312 311 312 314 314 313 312 312 316 313 314 313 313 313 319 322 324 325 325 329 329 329 329
303 303 304 304 306 305 303 302 302 303 302 302 303 303 303 311 303 312 312 313 314 312 311 311 313 314 314 314 312 314 312 313 313 312 315 316 322 325 324 325 328 327 327 327 327
303 303 302 303 304 304 303 304 303 303 303 302 304 303 305 310 307 303 304 309 316 313 310 311 314 312 314 311 310 312 312 311 312 313 314 322 325 327 328 326 327 327 328 328 326
303 303 303 303 302 302 301 301 301 302 302 301 306 303 309 308 303 305 308 311 312 312 311 310 312 311 312 311 313 313 312 315 315 315 317 322 325 329 327 328 329 329 329 327 325
303 303 303 303 304 303 303 302 302 302 300 303 306 307 307 306 301 304 310 311 314 311 311 310 310 311 312 314 313 315 317 315 315 314 319 324 324 329 327 330 330 329 329 327 325
304 304 304 304 304 304 304 304 304 302 303 306 307 307 307 301 302 303 304 306 307 311 311 311 310 311 313 314 314 316 314 317 314 318 319 323 321 318 324 331 330 329 327 324 324
304 304 304 303 303 304 304 304 302 305 307 307 307 307 307 305 311 307 310 309 307 311 311 312 312 313 313 315 316 314 316 315 314 316 322 323 323 320 327 329 330 329 328 326 323
304 303 302 303 303 304 304 303 304 308 307 308 308 306 305 303 311 312 313 311 309 312 313 314 313 314 313 315 315 317 316 314 315 319 321 322 322 320 324 329 330 329 327 326 323
303 301 302 303 303 303 303 304 305 306 304 309 309 308 307 312 314 315 313 312 311 312 316 314 317 317 314 316 314 314 314 315 314 313 315 316 316 318 316 327 329 330 329 327 324
301 301 302 303 303 303 302 305 304 302 305 305 305 306 307 310 310 312 312 314 312 311 314 314 318 317 314 314 315 314 315 316 315 313 314 316 318 319 319 322 325 328 329 328 324
301 300 301 303 303 303 302 303 303 302 306 308 307 307 307 307 309 309 312 313 313 313 315 317 316 315 315 314 315 316 316 316 316 314 315 318 320 319 319 321 322 324 326 326 325
299 299 301 303 303 303 302 303 303 303 311 307 310 309 308 308 309 307 307 312 312 313 314 315 314 314 315 315 315 317 314 315 314 315 317 318 321 320 319 319 320 322 323 324 324
300 299 301 303 304 303 303 302 302 306 305 304 309 307 309 306 306 310 308 309 314 313 315 315 315 315 315 315 315 316 315 316 315 316 317 318 320 319 317 320 321 322 323 323 323
299 299 301 302 303 303 302 302 305 312 310 307 307 310 310 309 308 310 310 310 311 314 315 313 314 315 315 314 314 315 316 316 317 318 322 319 320 320 319 319 320 320 321 322 322
298 299 300 301 304 303 303 302 310 309 307 308 307 306 306 307 310 309 311 311 312 314 317 315 315 314 314 316 314 316 318 319 322 324 323 318 319 321 319 318 319 320 320 321 322
298 299 299 301 303 304 302 305 307 307 310 307 307 307 306 309 310 309 309 311 310 311 313 316 316 316 316 317 317 316 317 321 324 325 322 321 323 321 321 319 319 318 319 320 322
299 299 299 300 302 304 303 305 306 305 307 307 307 307 308 308 308 311 309 308 307 310 314 315 315 313 314 315 317 316 318 317 320 323 325 322 321 319 320 319 319 318 317 320 323
300 300 300 300 303 303 304 305 303 306 304 305 308 309 309 308 308 310 314 308 312 309 312 315 317 315 314 315 315 317 317 320 319 322 324 322 323 321 320 320 319 320 317 319 322
299 300 299 301 303 304 305 305 303 302 302 305 307 308 308 307 306 306 313 309 308 314 311 313 315 315 316 315 316 317 318 319 319 320 323 323 323 321 322 321 320 321 318 317 317
299 300 301 303 304 304 305 304 303 302 302 305 306 306 307 306 306 305 308 312 309 314 319 317 313 315 314 313 314 315 317 319 322 321 321 322 322 318 320 320 320 320 319 318 315
300 300 300 302 304 303 305 305 303 302 304 304 307 305 306 306 305 307 308 309 308 309 321 319 320 319 318 316 315 316 314 316 319 318 321 325 322 318 319 319 319 319 320 318 316
299 301 300 302 302 303 305 305 304 301 302 303 304 305 305 306 306 307 307 307 308 308 318 318 320 320 321 320 321 323 321 319 317 319 318 320 319 319 319 320 321 320 320 319 317
298 300 302 302 303 303 304 304 304 303 302 302 303 304 305 306 305 305 306 307 306 310 315 319 319 319 321 320 320 318 318 318 318 317 318 318 318 318 318 318 319 319 317 317 318
298 301 301 302 303 304 305 305 305 303 303 303 304 305 305 305 305 305 305 305 305 307 309 309 321 318 318 317 317 316 316 313 316 316 316 317 317 315 316 316 316 318 317 317 318
297 297 301 302 302 304 304 305 305 304 304 303 303 304 304 304 304 304 304 304 305 305 306 309 317 316 314 316 315 314 316 314 316 315 316 316 313 312 319 318 317 317 318 316 317
Wind_Speed
14 16 17 18 20 21 22 23 24 25 24 25 28 28 30 30 34 20 9 13 8 14 12 20 11 10 7 4 4 3 2 4 4 6 2 3 5 3 0 3 3 4 2 1 2
16 15 16 17 19 20 22 24 25 26 24 26 27 30 29 30 24 15 13 10 12 15 17 17 8 11 4 4 4 4 4 8 6 5 5 4 7 4 4 4 5 4 4 3 1
16 16 16 17 18 20 21 23 24 25 26 25 26 30 31 22 7 5 15 7 12 22 14 11 14 6 5 4 5 6 7 6 5 11 6 5 3 8 6 8 8 4 5 7 3
17 17 18 18 19 20 22 24 25 24 27 24 23 25 27 7 6 3 13 7 12 16 10 8 6 7 6 8 6 4 8 6 4 4 2 3 3 4 10 6 5 4 5 8 6
17 18 19 21 21 22 24 26 27 28 29 26 19 19 12 4 10 14 12 6 9 14 6 5 7 5 6 7 8 6 6 6 10 7 6 3 7 5 9 8 7 10 8 8 7
18 19 19 20 23 24 25 28 31 31 31 29 17 11 4 7 8 10 7 6 8 11 5 6 6 6 4 5 8 7 8 7 6 8 3 5 3 3 4 9 9 10 10 8 8
19 20 20 22 25 26 27 28 31 32 32 28 14 4 3 17 12 11 8 7 7 10 4 9 4 3 5 3 4 3 4 5 6 3 5 6 6 9 4 9 10 8 8 8 6
20 20 22 24 25 27 29 31 34 35 25 18 10 5 7 21 20 25 18 19 18 11 5 4 6 3 3 1 3 4 1 5 1 4 1 5 12 3 8 12 10 10 7 8 7
19 20 23 24 25 27 29 33 35 15 11 7 10 6 9 9 9 14 15 10 15 14 8 3 3 4 2 4 2 1 6 6 4 4 3 5 7 2 6 11 11 11 9 8 8
18 21 23 24 24 26 30 34 11 4 6 7 7 1 6 3 11 6 3 8 3 9 3 5 2 4 3 9 11 8 5 5 7 4 2 4 15 15 8 12 13 13 11 10 10
19 21 22 22 21 24 29 12 5 2 5 6 5 6 3 7 15 4 4 7 2 4 10 5 7 14 16 15 5 7 4 4 3 4 3 6 11 15 7 9 11 13 13 13 13
19 19 21 20 20 22 12 4 6 7 12 16 21 17 29 7 6 9 9 6 5 9 9 4 15 13 8 8 10 6 5 7 9 6 7 9 13 14 6 6 8 14 14 14 12
18 18 19 19 18 7 9 1 14 16 6 10 7 8 10 20 18 20 6 3 6 8 15 16 4 15 14 8 11 13 11 7 9 6 3 4 6 6 3 4 5 9 12 13 16
17 18 17 18 6 10 5 5 18 10 5 6 4 6 8 10 8 22 18 9 6 14 9 12 8 11 11 16 13 14 10 7 5 3 5 3 7 7 9 9 8 9 12 13 16
17 16 15 12 9 5 8 18 20 3 6 1 2 3 7 7 6 3 22 13 11 7 7 8 7 11 12 10 14 10 8 10 7 6 4 3 5 3 4 9 11 8 11 15 18
16 15 14 10 5 9 10 18 3 2 7 6 2 2 5 9 5 4 5 3 5 5 1 8 2 11 13 5 16 7 3 3 3 2 6 7 7 4 5 10 6 7 6 9 15
16 14 13 10 2 4 13 7 1 4 5 7 7 7 9 5 4 4 5 13 7 10 12 5 8 3 4 8 6 5 6 3 5 4 7 1 7 11 9 12 11 12 11 5 13
15 15 14 14 9 7 3 1 8 2 6 5 8 12 2 2 4 5 5 9 9 1 7 10 6 12 5 6 6 13 12 5 7 6 5 4 5 6 8 10 9 11 11 6 10
16 15 10 13 8 8 2 4 3 6 3 8 13 5 5 7 5 2 6 2 6 8 6 8 9 4 6 5 7 6 8 6 2 2 1 2 4 10 10 7 10 8 8 11 9
9 7 10 14 10 12 5 8 5 3 4 4 2 5 6 8 9 8 1 6 6 8 3 5 2 4 3 4 4 8 10 5 1 6 8 2 3 6 6 8 6 5 7 7 5
6 3 7 13 20 3 7 6 4 12 6 2 2 4 4 5 6 8 8 2 11 9 4 3 2 2 4 5 11 6 8 1 3 3 4 4 4 7 12 10 7 6 5 4 6
4 3 7 24 5 2 3 5 7 4 2 3 2 5 4 5 5 5 6 5 11 11 3 2 2 3 5 1 3 2 5 9 4 4 1 1 8 4 9 10 6 9 7 6 3
3 3 9 14 6 8 3 4 8 6 3 1 2 0 2 2 3 2 5 5 10 9 4 4 1 3 2 2 4 2 2 3 2 3 7 6 4 3 5 9 13 10 9 6 4
3 3 6 6 7 12 9 6 7 5 7 1 3 3 1 1 0 4 6 4 9 9 8 2 2 2 2 3 2 1 6 3 3 3 5 5 5 7 10 10 11 9 9 8 6
5 4 4 3 9 16 10 8 12 8 6 7 5 10 6 2 3 4 3 5 6 10 5 4 3 1 2 2 3 2 5 4 4 6 5 4 7 9 10 12 14 12 11 10 10
3 4 4 4 6 15 11 13 18 14 11 7 8 4 11 11 11 5 0 2 4 6 8 8 3 2 2 2 2 4 8 3 4 2 6 8 8 7 15 17 15 13 11 12 12
14 6 2 8 9 6 14 16 18 14 9 13 12 10 11 12 10 12 9 9 8 6 4 4 1 3 4 1 4 3 6 4 2 2 2 3 4 9 12 13 15 17 15 10 8
Wind_Direction
330 334 335 334 333 333 333 336 338 337 340 342 340 342 338 337 321 314 245 249 262 213 191 170 167 149 141 123 119 137 169 218 219 193 260 177 219 181 338 238 184 198 216 261 260
334 335 334 333 333 332 330 329 331 333 334 339 341 338 337 338 318 274 297 246 229 196 174 159 164 145 142 139 140 178 201 215 206 209 258 269 228 189 217 229 231 223 206 182 168
336 338 338 337 335 334 334 333 329 326 324 331 338 336 338 338 304 256 345 245 192 176 195 191 157 146 155 151 166 176 228 209 235 234 257 279 240 189 207 250 230 213 195 181 159
328 330 332 331 333 334 336 333 333 328 326 326 330 335 340 1 294 326 5 92 156 171 168 158 152 157 165 176 164 204 236 212 259 217 178 247 157 217 213 259 107 140 166 172 171
329 333 333 330 329 329 332 329 326 325 324 328 328 338 355 354 252 279 305 334 162 191 229 192 174 158 195 178 144 212 250 191 243 253 245 177 225 243 234 224 124 126 139 160 170
328 333 336 329 327 327 327 325 322 320 319 320 313 333 35 283 262 280 304 291 206 200 227 218 210 195 185 194 175 192 234 251 273 260 207 213 218 212 230 182 146 153 158 157 161
326 329 329 328 326 325 327 326 321 320 313 307 285 281 174 247 265 275 282 272 226 211 201 233 227 177 152 195 197 148 264 295 242 253 213 178 249 234 213 181 162 179 176 166 176
326 327 325 327 326 325 324 324 322 318 306 287 231 189 242 271 279 274 259 257 250 211 212 223 224 214 221 197 56 144 81 252 201 162 308 196 269 227 184 174 197 189 192 189 200
324 324 324 326 327 326 324 323 320 321 320 189 164 150 268 306 269 282 237 228 219 202 225 274 187 191 173 174 179 118 222 221 294 211 123 212 276 161 171 191 203 191 199 203 206
323 326 328 329 328 328 325 325 328 45 54 119 127 181 248 253 297 285 243 201 189 146 172 177 174 197 178 186 211 183 185 225 233 164 188 202 272 286 222 207 208 198 193 207 214
323 327 330 332 332 331 330 339 7 337 1 262 249 293 339 330 285 252 174 169 137 147 189 195 195 210 197 207 198 158 174 220 242 236 262 224 267 288 287 228 223 213 199 208 214
323 324 331 333 334 332 345 28 70 313 295 257 248 242 252 251 305 265 235 185 175 197 166 157 224 208 181 201 206 196 166 242 286 243 223 277 292 295 252 243 225 222 208 208 205
317 322 328 333 332 336 346 10 344 346 275 284 228 241 231 201 227 249 194 203 187 179 193 205 223 177 185 194 197 223 212 216 246 335 249 296 273 294 282 258 251 224 215 209 202
313 319 327 332 327 334 327 331 333 337 305 283 230 254 182 159 235 234 222 190 207 202 185 225 226 184 200 210 188 230 204 220 230 292 264 338 288 286 286 278 258 241 207 208 203
310 315 323 327 301 302 309 318 326 191 324 24 178 174 158 192 305 204 203 217 202 176 170 217 196 188 203 215 188 235 167 200 222 228 282 241 268 251 287 273 264 252 220 211 201
305 313 322 325 294 293 317 323 313 200 251 322 10 349 152 225 264 18 177 230 195 150 241 219 186 194 204 175 194 160 151 90 66 167 247 219 218 261 245 240 254 265 253 207 203
300 307 311 291 284 314 322 334 164 215 331 333 333 330 293 253 229 184 185 194 176 181 200 201 214 194 157 183 163 168 129 191 211 203 250 228 186 257 249 254 250 270 288 202 201
297 301 296 276 271 264 328 18 223 223 284 343 324 309 251 344 253 158 142 197 240 133 175 198 217 195 190 174 181 197 192 188 211 213 234 145 221 240 260 280 268 263 271 256 199
305 304 282 274 240 191 131 213 252 214 340 343 322 352 348 350 343 245 161 217 233 206 185 196 231 176 188 164 160 170 194 190 97 62 30 219 261 279 285 270 273 275 285 260 205
301 299 253 252 209 160 217 229 240 297 39 343 297 11 348 334 7 -0 157 10 333 224 214 200 199 193 162 125 214 189 155 180 182 231 243 210 252 239 290 263 301 298 284 259 201
286 254 255 202 169 189 229 208 205 286 286 285 336 319 338 343 331 346 359 106 11 323 176 168 129 189 148 179 181 177 208 155 174 168 233 236 235 220 243 265 269 298 284 296 259
248 234 216 172 195 185 219 201 173 246 240 283 247 244 246 327 323 335 327 350 357 336 56 321 119 203 222 121 106 125 200 212 225 193 174 254 241 283 250 271 241 281 296 294 284
225 238 209 197 224 218 211 187 207 190 202 210 268 113 324 283 304 333 322 305 0 352 13 343 48 124 111 331 48 95 334 219 134 126 206 235 259 285 277 270 281 273 280 271 267
224 242 200 205 239 223 201 207 211 200 216 177 287 275 275 283 290 305 318 318 345 334 342 334 75 56 174 89 58 355 318 308 224 217 234 229 252 274 283 278 283 277 267 243 234
218 222 223 203 218 223 233 200 204 195 201 204 239 234 233 286 324 234 264 320 324 2 14 21 122 216 299 238 167 236 265 280 230 223 211 225 220 256 274 278 286 294 288 295 293
229 186 201 223 242 198 204 206 215 204 180 193 211 190 225 222 219 254 29 3 293 348 11 343 163 133 285 284 181 273 289 284 211 229 232 250 273 338 316 307 291 279 281 275 279
223 212 251 233 222 225 210 213 209 196 216 216 204 226 243 251 245 257 252 249 258 290 311 301 169 158 223 233 325 267 202 195 169 153 176 115 259 300 312 323 314 306 289 253 274